Location: Bergnerzell
(49.1816°N, 10.2565°E)
Time: 09:02:25
(UTC+00:00)

FENGYUN 1C DEB - Visible Passes

Search period start: 07 October 2024 00:00
Search period end: 17 October 2024 00:00
Orbit: 563 x 721 km, 98.9° (Epoch: 06 October)

Date Brightness Start Highest point End Pass type
(mag) Time Alt. Az. Time Alt. Az. Time Alt. Az.
07 Oct ? 01:57:51 19° NE 01:57:51 19° NE 01:59:42 10° N visible
07 Oct ? 03:35:30 17° NW 03:35:30 17° NW 03:36:37 10° NNW visible
08 Oct ? 02:22:25 21° NNE 02:22:25 21° NNE 02:23:57 10° N visible
08 Oct ? 04:00:03 10° NW 04:00:03 10° NW 04:00:05 10° NW visible
08 Oct ? 17:15:09 10° N 17:18:34 26° WNW 17:22:03 10° WSW visible
09 Oct ? 02:46:55 18° N 02:46:55 18° N 02:47:57 10° N visible
09 Oct ? 17:39:31 10° NNW 17:42:10 17° WNW 17:44:52 10° W visible
10 Oct ? 01:33:44 10° NNE 01:33:44 10° NNE 01:33:51 10° NNE visible
10 Oct ? 03:11:21 13° NNW 03:11:21 13° NNW 03:11:47 10° NNW visible
10 Oct ? 18:04:34 10° NW 18:05:38 11° NW 18:06:43 10° WNW visible
11 Oct ? 01:58:06 11° NNE 01:58:06 11° NNE 01:58:21 10° NNE visible
12 Oct ? 02:22:25 10° N 02:22:25 10° N 02:22:26 10° N visible
12 Oct ? 17:13:28 10° N 17:17:02 28° WNW 17:20:42 10° WSW visible
13 Oct ? 17:37:33 10° NNW 17:40:27 19° WNW 17:43:24 10° WSW visible
14 Oct ? 18:02:06 10° NNW 18:03:44 12° NW 18:05:24 10° W visible
16 Oct ? 17:10:59 10° N 17:14:43 32° WNW 17:18:34 10° SW visible
